EN

Hourly Weather Alpartir

Today, 24 January, Sunday

Time Temperature Precipitation Wind Pressure Humidity
00:00 +5°C° 0.4 mm 12 mps 699 mmHg 73%
01:00 +5°C° 0 mm 12 mps 699 mmHg 75%
02:00 +4°C° 0 mm 12 mps 699 mmHg 76%
03:00 +4°C° 0 mm 13 mps 700 mmHg 78%
04:00 +3°C° 0.1 mm 10 mps 700 mmHg 79%
05:00 +4°C° 0.1 mm 8 mps 701 mmHg 80%
06:00 +3°C° 0.1 mm 5 mps 702 mmHg 81%
07:00 +3°C° 0 mm 5 mps 703 mmHg 80%
08:00 +3°C° 0 mm 5 mps 704 mmHg 78%
09:00 +4°C° 0 mm 4 mps 705 mmHg 77%
10:00 +4°C° 0 mm 6 mps 705 mmHg 71%
11:00 +5°C° 0 mm 7 mps 705 mmHg 66%
12:00 +6°C° 0 mm 8 mps 706 mmHg 60%
13:00 +7°C° 0 mm 8 mps 706 mmHg 59%
14:00 +7°C° 0 mm 8 mps 706 mmHg 58%
15:00 +7°C° 0 mm 8 mps 706 mmHg 57%
16:00 +6°C° 0 mm 7 mps 706 mmHg 60%
17:00 +5°C° 0 mm 7 mps 706 mmHg 63%
18:00 +4°C° 0 mm 6 mps 707 mmHg 66%
19:00 +4°C° 0 mm 6 mps 707 mmHg 70%
20:00 +3°C° 0 mm 5 mps 707 mmHg 75%
21:00 +4°C° 0 mm 4 mps 708 mmHg 79%
22:00 +3°C° 0 mm 4 mps 708 mmHg 81%
23:00 +3°C° 0 mm 3 mps 708 mmHg 84%

Tomorrow, 25 January, Monday

Time Temperature Precipitation Wind Pressure Humidity
00:00 +2°C° 0 mm 3 mps 708 mmHg 86%
01:00 +2°C° 0 mm 3 mps 708 mmHg 86%
02:00 +3°C° 0 mm 2 mps 708 mmHg 87%
03:00 +3°C° 0 mm 2 mps 709 mmHg 87%
04:00 +3°C° 0 mm 2 mps 709 mmHg 87%
05:00 +3°C° 0 mm 2 mps 709 mmHg 87%
06:00 +3°C° 0 mm 2 mps 709 mmHg 88%
07:00 +4°C° 0 mm 2 mps 709 mmHg 85%
08:00 +4°C° 0 mm 2 mps 710 mmHg 83%
09:00 +5°C° 0 mm 2 mps 711 mmHg 81%
10:00 +6°C° 0 mm 2 mps 711 mmHg 76%
11:00 +5°C° 0 mm 3 mps 711 mmHg 72%
12:00 +6°C° 0 mm 4 mps 711 mmHg 68%
13:00 +7°C° 0 mm 4 mps 711 mmHg 66%
14:00 +7°C° 0 mm 4 mps 711 mmHg 65%
15:00 +8°C° 0 mm 3 mps 711 mmHg 63%
16:00 +7°C° 0 mm 3 mps 711 mmHg 69%
17:00 +6°C° 0 mm 2 mps 711 mmHg 74%
18:00 +6°C° 0 mm 1 mps 711 mmHg 80%
19:00 +5°C° 0 mm 2 mps 712 mmHg 81%
20:00 +5°C° 0 mm 2 mps 712 mmHg 83%
21:00 +4°C° 0 mm 2 mps 712 mmHg 84%
22:00 +4°C° 0 mm 2 mps 713 mmHg 85%
23:00 +4°C° 0 mm 2 mps 713 mmHg 85%

Day after tomorrow, 26 January, Tuesday

Time Temperature Precipitation Wind Pressure Humidity
00:00 +4°C° 0 mm 2 mps 713 mmHg 85%
01:00 +4°C° 0 mm 2 mps 713 mmHg 86%
02:00 +4°C° 0 mm 2 mps 713 mmHg 86%
03:00 +3°C° 0 mm 2 mps 713 mmHg 86%
04:00 +4°C° 0 mm 2 mps 712 mmHg 87%
05:00 +4°C° 0 mm 2 mps 712 mmHg 88%
06:00 +4°C° 0 mm 2 mps 712 mmHg 88%
07:00 +5°C° 0 mm 2 mps 713 mmHg 87%
08:00 +6°C° 0 mm 2 mps 713 mmHg 85%
09:00 +7°C° 0 mm 3 mps 713 mmHg 84%
10:00 +7°C° 0.1 mm 3 mps 713 mmHg 84%
11:00 +8°C° 0.1 mm 3 mps 713 mmHg 83%
12:00 +8°C° 0.1 mm 4 mps 713 mmHg 83%
13:00 +7°C° 0.2 mm 4 mps 713 mmHg 85%
14:00 +8°C° 0.2 mm 3 mps 713 mmHg 86%
15:00 +8°C° 0.2 mm 3 mps 713 mmHg 88%
16:00 +8°C° 0 mm 3 mps 713 mmHg 89%
17:00 +8°C° 0 mm 3 mps 713 mmHg 90%
18:00 +7°C° 0 mm 3 mps 713 mmHg 90%
19:00 +7°C° 0 mm 3 mps 714 mmHg 91%
20:00 +7°C° 0 mm 3 mps 714 mmHg 91%
21:00 +7°C° 0 mm 2 mps 714 mmHg 91%
22:00 +7°C° 0 mm 2 mps 714 mmHg 91%
23:00 +7°C° 0 mm 2 mps 715 mmHg 91%

27 January, Wednesday

Time Temperature Precipitation Wind Pressure Humidity
00:00 +7°C° 0 mm 2 mps 715 mmHg 91%
01:00 +8°C° 0 mm 2 mps 715 mmHg 91%
02:00 +8°C° 0 mm 2 mps 715 mmHg 91%
03:00 +8°C° 0 mm 2 mps 715 mmHg 91%
04:00 +8°C° 0 mm 2 mps 715 mmHg 91%
05:00 +8°C° 0 mm 2 mps 715 mmHg 91%
06:00 +8°C° 0 mm 2 mps 715 mmHg 92%
07:00 +8°C° 0 mm 2 mps 715 mmHg 91%
08:00 +9°C° 0 mm 2 mps 715 mmHg 90%
09:00 +9°C° 0 mm 2 mps 716 mmHg 89%
10:00 +11°C° 0 mm 3 mps 716 mmHg 84%
11:00 +12°C° 0 mm 3 mps 716 mmHg 78%
12:00 +13°C° 0 mm 4 mps 716 mmHg 72%
13:00 +13°C° 0 mm 4 mps 715 mmHg 70%
14:00 +14°C° 0 mm 4 mps 715 mmHg 68%
15:00 +14°C° 0 mm 4 mps 715 mmHg 66%
16:00 +13°C° 0 mm 3 mps 715 mmHg 72%
17:00 +11°C° 0 mm 3 mps 715 mmHg 78%
18:00 +10°C° 0 mm 2 mps 715 mmHg 84%
19:00 +10°C° 0 mm 3 mps 715 mmHg 84%
20:00 +9°C° 0 mm 3 mps 715 mmHg 85%
21:00 +8°C° 0 mm 4 mps 715 mmHg 86%
22:00 +8°C° 0 mm 4 mps 715 mmHg 86%
23:00 +8°C° 0 mm 4 mps 715 mmHg 86%

28 January, Thursday

Time Temperature Precipitation Wind Pressure Humidity
00:00 +8°C° 0 mm 4 mps 715 mmHg 87%
01:00 +8°C° 0 mm 4 mps 715 mmHg 87%
02:00 +8°C° 0 mm 4 mps 715 mmHg 87%
03:00 +8°C° 0 mm 4 mps 715 mmHg 87%
04:00 +9°C° 0 mm 3 mps 715 mmHg 87%
05:00 +8°C° 0 mm 3 mps 715 mmHg 87%
06:00 +8°C° 0 mm 3 mps 715 mmHg 87%
07:00 +9°C° 0 mm 3 mps 715 mmHg 85%
08:00 +10°C° 0 mm 3 mps 716 mmHg 84%
09:00 +11°C° 0 mm 3 mps 716 mmHg 82%
10:00 +12°C° 0 mm 4 mps 716 mmHg 76%
11:00 +13°C° 0 mm 5 mps 716 mmHg 71%
12:00 +15°C° 0 mm 6 mps 716 mmHg 65%
13:00 +15°C° 0 mm 6 mps 716 mmHg 64%
14:00 +15°C° 0 mm 6 mps 716 mmHg 62%
15:00 +15°C° 0 mm 6 mps 715 mmHg 61%
16:00 +14°C° 0 mm 5 mps 715 mmHg 68%
17:00 +12°C° 0 mm 4 mps 715 mmHg 74%
18:00 +11°C° 0 mm 3 mps 715 mmHg 81%

29 January, Friday

Time Temperature Precipitation Wind Pressure Humidity
Show more